Regional Weather Roundup
Issued by NWS

Home | Current Version | Previous Version | Graphics & Text | Print | Product List | Glossary On
Versions: 1 2 3 4 5 6 7 8 9 10 11 12 13 14 15 16 17 18 19 20 21 22 23 24 25 26 27 28 29 30 31 32 33 34 35 36 37 38 39 40 41 42 43 44 45 46 47 48 49 50
000
ASUS43 KDMX 010607
RWRIA

WEATHER ROUNDUP FOR IOWA
NATIONAL WEATHER SERVICE DES MOINES IA
100 AM CDT FRI AUG 01 2014

NOTE: "FAIR" INDICATES FEW OR NO CLOUDS BELOW 12,000 FEET WITH NO
SIGNIFICANT WEATHER AND/OR OBSTRUCTIONS TO VISIBILITY.

* - THESE STATIONS ARE NOT NWS STATIONS...THUS NOT UNDER NWS
QUALITY CONTROL.  THEY ALSO DO NOT REPORT WEATHER SUCH
AS PRECIPITATION OR FOG.

IAZ001>003-012>014-020>022-031>034-043>046-010700-
   NORTHWEST IOWA

CITY           SKY/WX    TMP DP  RH WIND       PRES   REMARKS
CARROLL *      PTCLDY    55  54  94 CALM      30.08R
CHEROKEE *     CLEAR     57  57  99 CALM      30.08S
DENISON *      CLOUDY    61  61 100 CALM      30.08R
LE MARS *      CLEAR     59  57  94 CALM      30.08S
ORANGE CITY *  CLEAR     63  59  88 CALM      30.08S
SHELDON *      CLEAR     55  55 100 CALM      30.07S
SIOUX CITY     PTCLDY    59  57  93 CALM      30.07S
6HR MIN TEMP:  59; 6HR MAX TEMP:  73;

SPENCER        CLEAR     58  56  93 W3        30.07S
6HR MIN TEMP:  58; 6HR MAX TEMP:  77;

STORM LAKE *   CLEAR     59  59 100 SW6       30.09S
$$

IAZ055>058-069>071-079>083-090>094-010700-
   SOUTHWEST IOWA

CITY           SKY/WX    TMP DP  RH WIND       PRES   REMARKS
ATLANTIC *     MOCLDY    64  63  94 CALM      30.08R
AUDUBON *      PTCLDY    63  61  94 CALM      30.10R
CLARINDA *     CLOUDY    66  63  88 S6        30.08S
COUNCIL BLFS *   N/A     66  64  94 NE7       30.07R
CRESTON *      CLOUDY    64  61  88 NE6       30.08S
HARLAN  *      HVY RAIN  66  63  88 NW7G21    30.15R
LAMONI         PTCLDY    66  59  78 CALM      30.07R
6HR MIN TEMP:  64; 6HR MAX TEMP:  80;

RED OAK *      CLOUDY    68  63  83 CALM      30.07S
SHENANDOAH *   CLOUDY    68  64  88 CALM      30.07S
$$

IAZ047>049-059>061-072>074-084-010700-
   CENTRAL IOWA

CITY           SKY/WX    TMP DP  RH WIND       PRES   REMARKS
AMES           CLEAR     58  57  97 CALM      30.06F
6HR MIN TEMP:  58; 6HR MAX TEMP:  75;

ANKENY *       CLEAR     59  57  94 CALM      30.07S
CHARITON *     MOCLDY    64  61  88 NE5       30.07S
DES MOINES     PTCLDY    68  61  78 CALM      30.06S
6HR MIN TEMP:  65; 6HR MAX TEMP:  72;

GRINNELL*      PTCLDY    63  59  88 CALM      30.07S
KNOXVILLE *    MOCLDY    64  61  88 CALM      30.06R
MARSHALLTOWN   CLEAR     63  60  90 W3        30.06S
6HR MIN TEMP:  60; 6HR MAX TEMP:  77;

PELLA *        PTCLDY    65  61  88 CALM      30.07S
PERRY *          N/A     57  57 100 CALM      30.07S
$$

IAZ004>006-015-016-023>025-035-036-010700-
   NORTH CENTRAL IOWA

CITY           SKY/WX    TMP DP  RH WIND       PRES   REMARKS
ALGONA *       CLEAR     63  61  94 SW5       30.07S
CLARION *      CLEAR     59  59 100 S3        30.07S
ESTHERVILLE    CLEAR     60  58  92 SW6       30.06S
6HR MIN TEMP:  60; 6HR MAX TEMP:  71; 6HR PCP:  0.07;

FORT DODGE *   CLEAR     59  57  94 CALM      30.08S
MASON CITY     CLEAR     59  58  96 SW3       30.08R
6HR MIN TEMP:  59; 6HR MAX TEMP:  78;

FOREST CITY *  CLEAR     59  59 100 CALM      30.06S
IOWA FALLS *     N/A     61  57  88 W3        30.08S
$$

IAZ007>011-017>019-026>030-037>042-050>054-066-010700-
   NORTHEAST IOWA

CITY           SKY/WX    TMP DP  RH WIND       PRES   REMARKS
CEDAR RAPIDS   PTCLDY    62  60  93 S3        30.05S
6HR MIN TEMP:  62; 6HR MAX TEMP:  76;

CHARLES CITY * CLEAR     59  57  94 CALM      30.07R
CLINTON *      PTCLDY    61  59  94 SW5       30.08S
DECORAH *      CLOUDY    61  55  82 CALM      30.05S
DUBUQUE        CLEAR     60  58  92 SW3       30.06S
6HR MIN TEMP:  60; 6HR MAX TEMP:  75;

MONTICELLO *   CLEAR     59  57  94 CALM      30.05S
OELWEIN *      PTCLDY    63  61  94 CALM      30.07R
WATERLOO       MOCLDY    60  59  96 W3        30.05R
6HR MIN TEMP:  60; 6HR MAX TEMP:  79;

$$

IAZ064-065-067-068-078-010700-
   EAST CENTRAL IOWA

CITY           SKY/WX    TMP DP  RH WIND       PRES   REMARKS
DAVENPORT      PTCLDY    65  60  84 CALM      30.06S
6HR MIN TEMP:  61; 6HR MAX TEMP:  77;

IOWA CITY      MOCLDY    63  61  93 CALM      30.07R
6HR MIN TEMP:  63; 6HR MAX TEMP:  78;

MT. PLEASANT * CLOUDY    67  64  91 S5        30.07S
MUSCATINE *    CLEAR     66  63  88 CALM      30.06S
QUAD CITIES    PTCLDY    64  61  90 CALM      30.05S
6HR MIN TEMP:  62; 6HR MAX TEMP:  79;

$$

IAZ062-063-075>077-085>089-095>099-010700-
   SOUTHEAST IOWA

CITY           SKY/WX    TMP DP  RH WIND       PRES   REMARKS
BURLINGTON     LGT RAIN  68  65  90 CALM      30.06S
6HR MIN TEMP:  65; 6HR MAX TEMP:  74; 6HR PCP: TRACE;

FAIRFIELD *    CLOUDY    70  63  78 CALM      30.07S
FORT MADISON * CLEAR     70  64  83 CALM      30.07S
KEOKUK *       CLEAR     64  63  94 S5        30.06S
OSKALOOSA *      N/A     65  62  89 CALM      30.07S
CENTERVILLE *  CLEAR     59  59 100 CALM      30.08S
OTTUMWA        PTCLDY    64  60  87 CALM      30.06S
6HR MIN TEMP:  64; 6HR MAX TEMP:  76; 6HR PCP: TRACE;

WASHINGTON *   CLOUDY    68  66  94 S5        30.06S
$$

ABBREVIATIONS USED IN REMARKS
   TC - TEMPERATURES IN CELSIUS
  WCI - WIND CHILL INDEX
   HX - HEAT INDEX
  VSB - VISIBILITY
$$



USA.gov is the U.S. government's official web portal to all federal, state and local government web resources and services.